This is the latest recevied weather packets stored in our database for station/object KGRR-WX. If no packets are shown the sender has not sent any weather packets the latest 10 day(s).
| Time | Temp. | Humidity | Pressure | Rain* | Wind** | Luminosity | Snow |
|---|---|---|---|---|---|---|---|
| 1777236306 | 19.44° C | 47% | 989.8 hPa | 0 mm | - | - | - |
| 1777235414 | 18.89° C | 44% | 989.9 hPa | 0 mm | - | - | - |
| 1777234506 | 19.44° C | 44% | 989.9 hPa | 0 mm | - | - | - |
| 1777233615 | 18.89° C | 43% | 989.9 hPa | 0 mm | - | - | - |
| 1777232707 | 18.89° C | 47% | 990.2 hPa | 0 mm | - | - | - |
| 1777231819 | 18.89° C | 47% | 990.2 hPa | 0 mm | - | - | - |
| 1777230907 | 18.89° C | 47% | 990.2 hPa | 0 mm | - | - | - |
| 1777230023 | 18.89° C | 47% | 990.2 hPa | 0 mm | - | - | - |
| 1777229108 | 18.33° C | 54% | 990.8 hPa | 0 mm | - | - | - |
| 1777228220 | 17.78° C | 53% | 991.5 hPa | 0 mm | - | - | - |
| 1777227307 | 17.22° C | 53% | 991.5 hPa | 0 mm | - | - | - |
| 1777226415 | 16.67° C | 53% | 991.5 hPa | 0 mm | - | - | - |
| 1777225507 | 16.67° C | 60% | 991.2 hPa | 0 mm | - | - | - |
| 1777224613 | 16.11° C | 69% | 991.5 hPa | 0 mm | - | - | - |
| 1777223704 | 14.44° C | 69% | 991.3 hPa | 0 mm | - | - | - |
| 1777222822 | 13.89° C | 69% | 991.3 hPa | 0 mm | - | - | - |
| 1777221905 | 13.33° C | 74% | 990.7 hPa | 0 mm | - | - | - |
| 1777221020 | 12.22° C | 79% | 991.4 hPa | 0 mm | - | - | - |
| 1777220107 | 12.22° C | 79% | 991.4 hPa | 0 mm | - | - | - |
| 1777219225 | 11.67° C | 79% | 991.4 hPa | 0 mm | - | - | - |
| 1777218307 | 11.11° C | 81% | 991.4 hPa | 0 mm | - | - | - |
| 1777217419 | 11.11° C | 82% | 991.4 hPa | 0 mm | - | - | - |
| 1777216506 | 10.56° C | 82% | 991.4 hPa | 0 mm | - | - | - |
| 1777215623 | 10° C | 82% | 991.4 hPa | 0 mm | - | - | - |
| 1777214706 | 10° C | 86% | 989.8 hPa | 0 mm | - | - | - |
* Rain latest hour (hover to see other rain measurements)
** Current wind speed in m/s (hover to see current wind gust speed)